Location: Ailingen
(47.6833°N, 9.5000°E)
Time: 12:20:33
(UTC+00:00)

Cosmos 1802 Rocket - Pass Details

Date: 18 November 2025
Orbit: 953 x 1011 km, 82.9° (Epoch: 10 December)

Event Time Altitude Azimuth Distance (km) Brightness Sun altitude
Rises 16:08:43 0° 191° (S) 3,729 7.6 -4.9°
Reaches altitude 10° 16:11:15 10° 192° (SSW) 2,784 6.9 -5.3°
Maximum altitude 16:17:40 79° 279° (W) 1,035 4.3 -6.3°
Drops below altitude 10° 16:24:08 10° 7° (N) 2,791 6.1 -7.3°
Sets 16:26:40 0° 9° (N) 3,739 6.8 -7.7°
